| time (UTC) | temp F | wind direction | speed MPH | gust MPH | rain 1hr in | rain 24hr in | rain mn in | humidity % | barometer mb |
| 20260905054503 | 72 | 132 | 2.0 | 4.0 | 0.00 | 0.02 | 0.00 | 92 | 1012.7 |
| 20260905053017 | 72 | 165 | 0.0 | 3.0 | 0.00 | 0.02 | 0.00 | 93 | 1013.0 |
| 20260905051520 | 71 | 263 | 0.0 | 6.0 | 0.00 | 0.03 | 0.00 | 93 | 1013.2 |
| 20260905050016 | 71 | 130 | 1.0 | 5.0 | 0.00 | 0.12 | 0.00 | 92 | 1013.3 |
| 20260905044504 | 72 | 128 | 3.0 | 7.0 | 0.00 | 0.23 | 0.00 | 92 | 1013.5 |
| 20260905043008 | 72 | 325 | 0.0 | 1.0 | 0.00 | 0.23 | 0.00 | 92 | 1013.3 |
| 20260905041505 | 72 | 325 | 0.0 | 1.0 | 0.00 | 0.23 | 0.00 | 92 | 1013.3 |
| 20260905040022 | 72 | 325 | 1.0 | 2.0 | 0.00 | 0.23 | 0.00 | 92 | 1013.6 |
| 20260905034520 | 72 | 325 | 0.0 | 1.0 | 0.00 | 0.23 | 0.23 | 92 | 1013.6 |
| 20260905033006 | 72 | 325 | 0.0 | 2.0 | 0.00 | 0.23 | 0.23 | 93 | 1013.5 |
| 20260905031509 | 72 | 163 | 0.0 | 1.0 | 0.00 | 0.23 | 0.23 | 93 | 1013.5 |
| 20260905030012 | 72 | 150 | 0.0 | 1.0 | 0.00 | 0.23 | 0.23 | 91 | 1013.7 |
| 20260905024505 | 73 | 235 | 0.0 | 3.0 | 0.00 | 0.23 | 0.23 | 92 | 1013.7 |
| 20260905023030 | 73 | 103 | 0.0 | 3.0 | 0.00 | 0.23 | 0.23 | 90 | 1013.6 |
| 20260905021514 | 73 | 167 | 0.0 | 4.0 | 0.00 | 0.23 | 0.23 | 91 | 1013.6 |
| 20260905020014 | 73 | 149 | 0.0 | 4.0 | 0.00 | 0.23 | 0.23 | 91 | 1013.5 |
| 20260905014516 | 73 | 148 | 0.0 | 3.0 | 0.00 | 0.23 | 0.23 | 91 | 1013.2 |
| 20260905013012 | 73 | 152 | 0.0 | 0.0 | 0.00 | 0.23 | 0.23 | 90 | 1013.3 |
| 20260905011508 | 73 | 135 | 0.0 | 0.0 | 0.00 | 0.23 | 0.23 | 91 | 1013.2 |
| 20260905010012 | 74 | 158 | 0.0 | 0.0 | 0.00 | 0.23 | 0.23 | 90 | 1012.7 |
| 20260905004517 | 74 | 177 | 0.0 | 4.0 | 0.00 | 0.23 | 0.23 | 89 | 1012.6 |
| 20260905003005 | 74 | 200 | 0.0 | 5.0 | 0.00 | 0.23 | 0.23 | 90 | 1012.5 |
| 20260905001503 | 74 | 175 | 1.0 | 5.0 | 0.00 | 0.23 | 0.23 | 89 | 1012.6 |
| 20260905000004 | 74 | 180 | 0.0 | 5.0 | 0.00 | 0.23 | 0.23 | 91 | 1013.1 |
| 20260904234503 | 74 | 153 | 0.0 | 3.0 | 0.00 | 0.23 | 0.23 | 90 | 1013.0 |
| 20260904233004 | 74 | 157 | 2.0 | 7.0 | 0.00 | 0.23 | 0.23 | 91 | 1013.3 |
| 20260904231504 | 74 | 257 | 0.0 | 7.0 | 0.00 | 0.23 | 0.23 | 90 | 1012.7 |
| 20260904230006 | 75 | 170 | 5.0 | 11.0 | 0.00 | 0.23 | 0.23 | 90 | 1013.0 |
| 20260904224505 | 75 | 244 | 1.0 | 3.0 | 0.00 | 0.23 | 0.23 | 89 | 1012.4 |
| 20260904223003 | 75 | 129 | 1.0 | 3.0 | 0.02 | 0.23 | 0.23 | 91 | 1012.4 |
| 20260904221505 | 75 | 36 | 0.0 | 2.0 | 0.02 | 0.23 | 0.23 | 91 | 1012.7 |
| 20260904220004 | 75 | 36 | 0.0 | 3.0 | 0.02 | 0.23 | 0.23 | 89 | 1013.1 |
| 20260904214511 | 77 | 344 | 0.0 | 8.0 | 0.02 | 0.23 | 0.23 | 85 | 1014.1 |
| 20260904213005 | 78 | 142 | 5.0 | 19.0 | 0.00 | 0.21 | 0.21 | 83 | 1015.1 |
| 20260904211504 | 80 | 155 | 5.0 | 8.0 | 0.00 | 0.21 | 0.21 | 82 | 1013.8 |
| 20260904210008 | 81 | 222 | 1.0 | 6.0 | 0.00 | 0.21 | 0.21 | 80 | 1013.5 |
| 20260904204512 | 82 | 97 | 1.0 | 6.0 | 0.00 | 0.21 | 0.21 | 81 | 1013.6 |
| 20260904203027 | 84 | 134 | 2.0 | 4.0 | 0.00 | 0.21 | 0.21 | 79 | 1013.2 |
| 20260904201514 | 85 | 86 | 4.0 | 11.0 | 0.00 | 0.21 | 0.21 | 81 | 1013.1 |
| 20260904200004 | 87 | 349 | 0.0 | 3.0 | 0.00 | 0.21 | 0.21 | 76 | 1012.3 |
| 20260904194507 | 89 | 349 | 0.0 | 1.0 | 0.00 | 0.21 | 0.21 | 71 | 1012.5 |
| 20260904193009 | 90 | 306 | 0.0 | 3.0 | 0.00 | 0.21 | 0.21 | 69 | 1013.0 |
| 20260904191518 | 90 | 146 | 0.0 | 4.0 | 0.00 | 0.21 | 0.21 | 68 | 1012.9 |
| 20260904190023 | 90 | 152 | 2.0 | 4.0 | 0.00 | 0.21 | 0.21 | 66 | 1012.9 |
| 20260904184512 | 90 | 274 | 0.0 | 3.0 | 0.00 | 0.21 | 0.21 | 67 | 1013.2 |
| 20260904183008 | 89 | 274 | 0.0 | 2.0 | 0.00 | 0.21 | 0.21 | 68 | 1013.6 |
| 20260904181518 | 89 | 205 | 0.0 | 4.0 | 0.00 | 0.21 | 0.21 | 69 | 1013.7 |
| 20260904180014 | 88 | 162 | 0.0 | 2.0 | 0.00 | 0.21 | 0.21 | 67 | 1013.9 |
| 20260904174524 | 88 | 180 | 2.0 | 5.0 | 0.00 | 0.21 | 0.21 | 70 | 1014.1 |
| 20260904173015 | 88 | 5 | 1.0 | 4.0 | 0.00 | 0.21 | 0.21 | 70 | 1014.2 |
| 20260904171516 | 87 | 15 | 1.0 | 4.0 | 0.00 | 0.21 | 0.21 | 70 | 1014.3 |
| 20260904170016 | 86 | 351 | 1.0 | 5.0 | 0.00 | 0.21 | 0.21 | 70 | 1014.6 |
| 20260904164512 | 86 | 135 | 1.0 | 4.0 | 0.00 | 0.21 | 0.21 | 70 | 1014.7 |
| 20260904163011 | 85 | 319 | 2.0 | 6.0 | 0.00 | 0.21 | 0.21 | 70 | 1014.8 |
| 20260904161515 | 85 | 187 | 1.0 | 8.0 | 0.00 | 0.21 | 0.21 | 70 | 1014.9 |
| 20260904160016 | 85 | 286 | 1.0 | 4.0 | 0.00 | 0.21 | 0.21 | 72 | 1014.9 |
| 20260904154535 | 85 | 284 | 0.0 | 3.0 | 0.00 | 0.21 | 0.21 | 70 | 1014.9 |
| 20260904153003 | 84 | 29 | 1.0 | 3.0 | 0.00 | 0.21 | 0.21 | 73 | 1015.0 |
| 20260904151502 | 84 | 293 | 1.0 | 6.0 | 0.00 | 0.21 | 0.21 | 77 | 1015.1 |
| 20260904150015 | 83 | 333 | 2.0 | 5.0 | 0.00 | 0.21 | 0.21 | 80 | 1015.0 |
| 20260904144502 | 81 | 20 | 2.0 | 6.0 | 0.00 | 0.21 | 0.21 | 85 | 1015.0 |
| 20260904143003 | 80 | 341 | 2.0 | 5.0 | 0.00 | 0.21 | 0.21 | 86 | 1015.2 |
| 20260904141504 | 79 | 336 | 0.0 | 4.0 | 0.00 | 0.21 | 0.21 | 89 | 1015.1 |
| 20260904140006 | 78 | 24 | 0.0 | 4.0 | 0.00 | 0.21 | 0.21 | 89 | 1015.0 |
| 20260904134503 | 78 | 348 | 2.0 | 5.0 | 0.00 | 0.21 | 0.21 | 91 | 1015.1 |
| 20260904133004 | 78 | 345 | 2.0 | 8.0 | 0.00 | 0.21 | 0.21 | 91 | 1015.2 |
| 20260904131506 | 77 | 5 | 3.0 | 6.0 | 0.00 | 0.21 | 0.21 | 95 | 1015.0 |
| 20260904130008 | 76 | 165 | 0.0 | 0.0 | 0.00 | 0.21 | 0.21 | 96 | 1014.7 |
| 20260904124508 | 75 | 165 | 0.0 | 3.0 | 0.00 | 0.21 | 0.21 | 96 | 1014.7 |
| 20260904123006 | 74 | 142 | 1.0 | 3.0 | 0.00 | 0.21 | 0.21 | 96 | 1014.7 |
| 20260904121504 | 73 | 30 | 0.0 | 0.0 | 0.00 | 0.21 | 0.21 | 97 | 1014.7 |
| 20260904120005 | 73 | 30 | 0.0 | 0.0 | 0.00 | 0.21 | 0.21 | 97 | 1014.6 |
| 20260904114512 | 72 | 30 | 0.0 | 0.0 | 0.00 | 0.21 | 0.21 | 97 | 1014.4 |
| 20260904113012 | 71 | 30 | 0.0 | 0.0 | 0.00 | 0.21 | 0.21 | 96 | 1014.5 |
| 20260904111515 | 71 | 30 | 0.0 | 0.0 | 0.00 | 0.21 | 0.21 | 96 | 1014.4 |
| 20260904110012 | 71 | 30 | 0.0 | 0.0 | 0.00 | 0.21 | 0.21 | 96 | 1014.2 |
| 20260904104503 | 71 | 136 | 0.0 | 0.0 | 0.00 | 0.21 | 0.21 | 95 | 1014.2 |
| 20260904103017 | 71 | 136 | 0.0 | 0.0 | 0.00 | 0.21 | 0.21 | 95 | 1014.1 |
| 20260904101535 | 71 | 136 | 0.0 | 0.0 | 0.00 | 0.21 | 0.21 | 95 | 1014.0 |
| 20260904100019 | 71 | 330 | 0.0 | 0.0 | 0.00 | 0.21 | 0.21 | 96 | 1014.0 |
| 20260904094506 | 71 | 335 | 0.0 | 0.0 | 0.00 | 0.21 | 0.21 | 95 | 1013.9 |
| 20260904093012 | 71 | 333 | 0.0 | 0.0 | 0.00 | 0.21 | 0.21 | 96 | 1014.0 |
| 20260904091508 | 71 | 169 | 0.0 | 0.0 | 0.00 | 0.21 | 0.21 | 96 | 1013.9 |
| 20260904090028 | 71 | 169 | 0.0 | 0.0 | 0.00 | 0.21 | 0.21 | 95 | 1014.1 |
| 20260904084530 | 71 | 133 | 0.0 | 0.0 | 0.00 | 0.21 | 0.21 | 95 | 1014.0 |
| 20260904083013 | 72 | 350 | 0.0 | 0.0 | 0.00 | 0.21 | 0.21 | 96 | 1014.0 |
| 20260904081518 | 71 | 350 | 0.0 | 0.0 | 0.00 | 0.21 | 0.21 | 96 | 1014.0 |
| 20260904080014 | 71 | 350 | 0.0 | 0.0 | 0.00 | 0.21 | 0.21 | 95 | 1014.1 |
| 20260904074511 | 72 | 350 | 0.0 | 0.0 | 0.00 | 0.21 | 0.21 | 95 | 1013.9 |
| 20260904073009 | 72 | 350 | 0.0 | 0.0 | 0.00 | 0.21 | 0.21 | 95 | 1013.5 |
| 20260904071513 | 72 | 350 | 0.0 | 0.0 | 0.00 | 0.21 | 0.21 | 95 | 1013.6 |
| 20260904070038 | 72 | 350 | 0.0 | 0.0 | 0.00 | 0.21 | 0.21 | 95 | 1013.5 |
| 20260904064523 | 72 | 350 | 0.0 | 0.0 | 0.00 | 0.21 | 0.21 | 95 | 1013.6 |
| 20260904063003 | 72 | 350 | 0.0 | 1.0 | 0.00 | 0.21 | 0.21 | 94 | 1013.6 |
| 20260904061507 | 72 | 350 | 2.0 | 4.0 | 0.01 | 0.21 | 0.21 | 94 | 1013.6 |
| 20260904060003 | 72 | 227 | 0.0 | 2.0 | 0.10 | 0.21 | 0.21 | 94 | 1013.6 |